Regional Weather Roundup
Issued by NWS Green Bay, WI

Home | Current Version | Previous Version | Text Only | Print | Product List | Glossary On
Versions: 1 2 3 4 5 6 7 8 9 10 11 12 13 14 15 16 17 18 19 20 21 22 23 24 25 26 27 28 29 30 31 32 33 34 35 36 37 38 39 40 41 42 43 44 45 46 47 48 49 50
608
ASUS43 KGRB 010500
RWRGRB

NORTH-CENTRAL AND NORTHEAST WISCONSIN REGIONAL WEATHER ROUNDUP
NATIONAL WEATHER SERVICE GREEN BAY WI
1200 AM CDT SUN MAY 01 2016

WIZ005-009-010>012-018-019-010600-
NORTH CENTRAL WISCONSIN

CITY           SKY/WX    TMP DP  RH WIND       PRES   REMARKS
IRONWOOD         N/A     36  34  93 NE3       30.17S
MANITOWISH WTR NOT AVBL
ARBOR VITAE    NOT AVBL
EAGLE RIVER    NOT AVBL
LAND O LAKES   NOT AVBL
RHINELANDER    CLOUDY    41  31  67 NE6       30.14R
PHILLIPS       PTCLDY    40  31  70 NE10G18   30.13S
ANTIGO         NOT AVBL
TOMAHAWK       NOT AVBL
MERRILL        NOT AVBL
$$

WIZ013-073-010600-
NORTHEAST WISCONSIN

CITY           SKY/WX    TMP DP  RH WIND       PRES   REMARKS
IRON MOUNTAIN  CLOUDY    40  32  73 N7        30.11F
MARINETTE      CLOUDY    45  30  57 NE14      30.08S
$$

WIZ017-030-035>037-045-010600-
CENTRAL WISCONSIN

CITY           SKY/WX    TMP DP  RH WIND       PRES   REMARKS
MEDFORD        NOT AVBL
WAUSAU         CLOUDY    49  30  48 NE12G23   30.07R
MOSINEE        NOT AVBL
MARSHFIELD     CLOUDY    49  34  56 NE12      30.06S
WISC RAPIDS    LGT RAIN  48  33  56 E12       30.07S
STEVENS POINT  NOT AVBL
WAUPACA        CLOUDY    50  33  52 N9        30.05F
SHAWANO        CLOUDY    49  32  53 NE12G20   30.08F
CLINTONVILLE   NOT AVBL
WAUTOMA        LGT RAIN  44  39  82 NE6       30.04F
$$

WIZ038-039-048-051-010600-
FOX VALLEY

CITY           SKY/WX    TMP DP  RH WIND       PRES   REMARKS
NWS GREEN BAY  CLOUDY    46  35  65 NE26G37   30.06S
APPLETON       NOT AVBL
OSHKOSH        CLOUDY    47  36  65 NE13      30.03S
FOND DU LAC    CLOUDY    45  37  73 E8        30.03F
$$

WIZ022-050-052-010600-
EAST CENTRAL WISCONSIN

CITY           SKY/WX    TMP DP  RH WIND       PRES   REMARKS
EPHRAIM        NOT AVBL
STURGEON BAY   CLOUDY    45  32  61 NE10      30.09S
MANITOWOC      NOT AVBL
SHEBOYGAN      CLOUDY    42  37  82 N8        30.02F
$$

LMZ563-521-522-541>543-010600-
LAKESHORE

STATION/POSITION TIME  TEMP    WIND        PRES    VSBY  WAVE
                       AIR SEA DIR/SP/G                  HT/PER
                 (UTC) (F)     (DEG/KT/KT) (MB)    (MI)  (FT/S)
SHEBOYGAN LKSHOR 0400   42      10/ 11/ 12 1017.8R
KEWAUNEE LKSHORE 0400   45      30/ 20/ 28 1016.7F
NORTHPORT PIER   0400   43      20/ 15/ 22 1019.0F
N MID LAKE BUOY  0350   41 39   10/ 14/ 16 1019.1F         2/ 4
CHAMBERS ISLAND  0400   42      10/ 16/ 20 1019.3F
MENOMINEE LKSHOR 0400   46     360/ 15/ 19 1017.5F
$$




USA.gov is the U.S. government's official web portal to all federal, state and local government web resources and services.